[[{"header":{"parameterUnit":"m.s-1","parameterCategory":1,"la1":30.2991,"la2":30.254,"lo1":-89.0895,"lo2":-89.0444,"dy":0.0017,"dx":0.0017,"nx":28,"ny":28,"refTime":"2024-05-23T21:00:00:Z","depth":0,"parameterNumber":2,"parameterNumberName":"U-component_of_WINDS"},"data":[0,0,0,0,0,0,0,0,0,0,0,0,0,0,0,0,0,0,0,0,0,0,0,0,0,0,0,0,0,0,0,0,0,0,0,0,0,0,0,0,0,0,0,0,0,0,0,0,0,0,0,0,0,0,0,0,0,0,1.858,1.8582,0,1.874,1.8742,1.8744,1.8773,1.8772,1.877,1.8769,1.8938,1.8943,1.8949,0,0,0,0,0,0,0,0,0,0,0,0,0,1.8305,1.831,1.858,1.8582,1.8584,1.874,1.8742,1.8744,1.8773,1.8772,1.877,1.8768,1.8936,1.8942,1.8949,0,0,0,0,0,0,0,0,0,0,0,0,0,1.8441,1.8312,1.858,1.8617,1.8622,1.8739,1.8742,1.8745,1.8774,1.8772,1.877,1.8768,1.8933,1.8942,1.895,1.9043,0,0,1.8976,1.898,0,0,0,0,0,0,0,0,1.8433,1.8451,1.861,1.8615,1.862,1.8734,1.8707,1.8845,1.8774,1.8716,1.8769,1.8767,1.8872,1.8885,1.892,1.9051,1.9058,1.8977,1.8982,1.8986,1.8988,0,0,0,0,0,0,0,1.8424,1.8444,1.8643,1.8612,1.8619,1.8628,1.8645,1.8733,1.8803,1.8721,1.8724,1.8742,1.8875,1.8912,1.8924,1.906,1.8977,1.8985,1.899,1.8993,1.9278,1.928,0,0,0,0,0,0,1.8407,1.8436,1.8638,1.8648,1.852,1.8634,1.8653,1.87,1.8802,1.8816,1.8743,1.8743,1.8898,1.8914,1.893,1.9047,1.8986,1.8994,1.8999,1.9276,1.9278,1.9281,0,0,0,0,0,0,1.8401,1.8425,1.8632,1.8543,1.857,1.8641,1.8693,1.8704,1.8741,1.8819,1.8832,1.8768,1.8897,1.8918,1.9015,1.9053,1.8998,1.9006,1.9273,1.9276,1.928,1.9279,0,0,0,0,0,0,1.8393,1.8422,1.8457,1.8543,1.8575,1.8712,1.8695,1.8709,1.8755,1.8756,1.8846,1.8859,1.8897,1.9002,1.9023,1.9064,1.9012,1.927,1.9274,1.9279,1.9276,1.9283,1.9288,0,0,0,0,0,1.8383,1.8451,1.8458,1.8482,1.8619,1.8714,1.8732,1.8773,1.8758,1.8794,1.8845,1.8856,1.9045,1.9011,1.9036,1.9079,1.9267,1.9273,1.9278,1.9274,1.9281,1.9288,0,0,0,0,0,0,1.8367,1.8462,1.8472,1.8569,1.8633,1.8719,1.8765,1.878,1.885,1.8848,1.8898,1.8918,1.9012,1.9056,1.9016,1.9176,1.9156,1.9166,1.9144,1.9152,1.9157,1.9145,1.9019,0,0,0,0,0,1.8375,1.8443,1.8523,1.8601,1.8633,1.8693,1.8737,1.8763,1.8832,1.8859,1.8917,1.8985,1.906,1.9108,1.9181,1.9283,1.9304,1.9325,1.9331,1.9335,1.9344,1.9404,1.9414,1.9299,1.9299,1.9299,0,0,1.8392,1.8452,1.8492,1.86,1.8652,1.8723,1.8716,1.8791,1.8845,1.8871,1.8966,1.9011,1.909,1.919,1.9237,1.9229,1.9381,1.9342,1.9345,1.9352,1.941,1.9421,1.9431,1.9303,1.9302,1.9301,0,0,1.8459,1.8511,1.8582,1.8635,1.8715,1.8755,1.8772,1.8857,1.8887,1.8983,1.9005,1.9071,1.9198,1.9254,1.9299,1.939,1.9404,1.9413,1.9443,1.9501,1.951,1.9518,1.9552,1.9563,1.9421,1.9421,1.9421,0,1.847,1.8576,1.8618,1.8692,1.874,1.8766,1.8841,1.8891,1.8991,1.9024,1.9013,1.9175,1.9231,1.9345,1.9367,1.9403,1.9426,1.9403,1.9505,1.9513,1.9522,1.9555,1.9568,1.9422,1.9422,1.9422,1.9422,0,1.8587,1.8661,1.8709,1.8804,1.8858,1.8932,1.8987,1.9036,1.9058,1.9101,1.9199,1.9267,1.9355,1.9384,1.9407,1.9503,1.9496,1.9494,1.9475,1.9533,1.9565,1.9578,1.9423,1.9423,1.9422,1.9422,0,0,1.8648,1.8766,1.8783,1.8827,1.8918,1.8977,1.9053,1.9139,1.9181,1.925,1.9316,1.9425,1.9425,1.9476,1.9506,1.9556,1.9626,1.9549,1.9552,1.9562,1.9738,1.9739,1.9753,1.9635,1.9638,1.964,1.9732,0,1.8726,1.8862,1.8903,1.9017,1.9087,1.9114,1.9181,1.9246,1.9288,1.9355,1.9402,1.9478,1.9472,1.9503,1.9554,1.9606,1.9662,1.96,1.97,1.9703,1.968,1.9769,1.977,1.9854,1.9745,1.9747,1.9748,0,1.8836,1.8906,1.9027,1.9111,1.9142,1.9201,1.9284,1.9347,1.9421,1.9449,1.9507,1.9533,1.9616,1.9592,1.9709,1.9666,1.971,1.9742,1.9747,1.9758,1.9729,1.9784,1.9881,1.9894,1.9768,1.9767,1.9765,0,1.8869,1.8994,1.9083,1.912,1.922,1.9261,1.9305,1.9377,1.9427,1.95,1.9533,1.9615,1.966,1.9724,1.9773,1.975,1.9887,1.9866,1.9913,1.9912,1.9941,1.9938,2.0047,1.9968,1.9967,1.9967,1.9967,0,1.8953,1.9027,1.91,1.9155,1.9239,1.9286,1.9369,1.9414,1.9479,1.9545,1.9574,1.9636,1.9696,1.9766,1.9805,1.9897,1.9917,1.9943,1.9953,1.9941,1.9938,1.997,1.9966,1.9971,1.997,1.9969,1.9969,0,1.9005,1.9056,1.9156,1.9242,1.9266,1.9324,1.9399,1.9455,1.9498,1.9582,1.9604,1.9673,1.9758,1.9813,1.9921,1.9947,2.0048,2.0056,2.0023,2.0027,2.0072,2.0067,2.0206,2.0227,2.0132,2.0133,2.0134,0,1.9055,1.9112,1.9205,1.925,1.9294,1.9367,1.9418,1.9468,1.952,1.961,1.9656,1.9742,1.9813,1.9948,2.0009,2.0093,2.0103,2.0146,2.0116,2.0103,2.0105,2.0101,2.0108,2.0151,2.0152,2.0152,2.0153,0,1.9139,1.9163,1.9233,1.9314,1.9373,1.944,1.9506,1.9542,1.9604,1.9661,1.9748,1.9803,1.9914,2.0,2.0089,2.0137,2.0156,2.0162,2.0177,2.0166,2.0145,2.0158,2.0037,2.0158,2.0158,2.0157,2.0157,2.0157,1.9193,1.9245,1.9319,1.9398,1.9453,1.9515,1.9572,1.9623,1.9695,1.9788,1.9814,1.9905,1.9981,2.0102,2.0152,2.0225,2.022,2.0242,2.0248,2.0253,2.0254,2.0133,2.0242,2.0242,2.0241,2.0241,2.0241,0,1.9279,1.9328,1.94,1.9492,1.9555,1.9566,1.9641,1.9693,1.9772,1.9841,1.9911,2.0011,2.0096,2.0164,2.0251,2.0297,2.0308,2.0318,2.0316,2.0327,2.0253,2.0231,2.0308,2.0308,2.0308,2.0308,2.0308,2.0308,1.9332,1.9422,1.9454,1.9574,1.9623,1.9711,1.9753,1.9811,1.9866,1.9977,2.0046,2.009,2.016,2.0253,2.0331,2.035,2.0381,2.039,2.041,2.0339,2.0332,2.0325,2.0305,2.0396,2.0396,2.0478,2.0479,2.0479]},{"header":{"parameterUnit":"m.s-1","parameterCategory":1,"la1":30.2991,"la2":30.254,"lo1":-89.0895,"lo2":-89.0444,"dy":0.0017,"dx":0.0017,"nx":28,"ny":28,"refTime":"2024-05-23T21:00:00:Z","depth":0,"parameterNumber":3,"parameterNumberName":"V-component_of_WINDS"},"data":[0,0,0,0,0,0,0,0,0,0,0,0,0,0,0,0,0,0,0,0,0,0,0,0,0,0,0,0,0,0,0,0,0,0,0,0,0,0,0,0,0,0,0,0,0,0,0,0,0,0,0,0,0,0,0,0,0,0,3.3681,3.3681,0,3.3637,3.3637,3.3636,3.3591,3.3591,3.359,3.3589,3.3542,3.3542,3.3541,0,0,0,0,0,0,0,0,0,0,0,0,0,3.3727,3.3726,3.3682,3.3681,3.368,3.3638,3.3637,3.3636,3.3591,3.3591,3.359,3.3589,3.3543,3.3542,3.3541,0,0,0,0,0,0,0,0,0,0,0,0,0,3.3697,3.3726,3.3682,3.3653,3.365,3.3638,3.3637,3.3636,3.3592,3.3591,3.359,3.3589,3.3543,3.3542,3.3541,3.3553,0,0,3.3538,3.3537,0,0,0,0,0,0,0,0,3.3699,3.3696,3.3658,3.3655,3.3651,3.3619,3.3636,3.3608,3.3592,3.3614,3.3589,3.3588,3.3568,3.3565,3.3559,3.3551,3.3549,3.3538,3.3537,3.3537,3.3536,0,0,0,0,0,0,0,3.3701,3.3697,3.3664,3.3657,3.3653,3.3642,3.3637,3.363,3.3597,3.3612,3.3608,3.3604,3.3567,3.356,3.3557,3.3548,3.3538,3.3537,3.3536,3.3536,3.3551,3.3552,0,0,0,0,0,0,3.3708,3.3699,3.3665,3.3663,3.3674,3.3642,3.3636,3.363,3.3597,3.3591,3.3605,3.3602,3.3562,3.3559,3.3556,3.357,3.3537,3.3536,3.3535,3.355,3.3551,3.3552,0,0,0,0,0,0,3.3709,3.3705,3.3667,3.368,3.3674,3.3642,3.3636,3.363,3.3623,3.3591,3.3585,3.3604,3.3561,3.3557,3.3555,3.3568,3.3535,3.3534,3.3549,3.355,3.3552,3.3597,0,0,0,0,0,0,3.371,3.3706,3.371,3.3681,3.3674,3.3667,3.3637,3.363,3.3622,3.3618,3.3589,3.3584,3.356,3.3557,3.3554,3.3566,3.3533,3.3547,3.3549,3.3551,3.3595,3.36,3.3605,0,0,0,0,0,3.3712,3.3723,3.371,3.3706,3.3678,3.3668,3.3664,3.3638,3.3623,3.3627,3.3607,3.3584,3.3567,3.3557,3.3553,3.3565,3.3546,3.3549,3.3551,3.3592,3.3599,3.3605,0,0,0,0,0,0,3.3753,3.3719,3.3704,3.3706,3.369,3.366,3.3664,3.3645,3.3633,3.363,3.3597,3.3591,3.3593,3.3578,3.3568,3.3577,3.3553,3.3555,3.3586,3.3592,3.3598,3.3602,3.3533,0,0,0,0,0,3.3762,3.3757,3.3727,3.3732,3.3725,3.3696,3.3691,3.3672,3.3654,3.3647,3.3627,3.361,3.3601,3.3596,3.3585,3.3592,3.3587,3.3599,3.3604,3.3609,3.3611,3.3617,3.3622,3.356,3.356,3.356,0,0,3.3781,3.3762,3.376,3.374,3.3725,3.3721,3.3691,3.3687,3.3684,3.3646,3.3644,3.3629,3.3608,3.3612,3.3612,3.3599,3.3627,3.3611,3.3615,3.3615,3.362,3.3626,3.3631,3.3561,3.3561,3.3561,0,0,3.3814,3.3798,3.3802,3.3789,3.3769,3.375,3.3751,3.3725,3.3714,3.3711,3.3684,3.368,3.3664,3.3652,3.3643,3.3675,3.3655,3.3673,3.3701,3.3707,3.3712,3.3716,3.373,3.3735,3.3675,3.3675,3.3675,0,3.384,3.3833,3.3806,3.3805,3.3798,3.3765,3.377,3.3758,3.3735,3.3731,3.3718,3.37,3.3683,3.3685,3.3694,3.3687,3.3688,3.3676,3.3713,3.3717,3.3721,3.3734,3.3739,3.3677,3.3677,3.3677,3.3677,0,3.3867,3.3863,3.3868,3.385,3.3843,3.3844,3.3818,3.3814,3.3797,3.378,3.378,3.3759,3.3746,3.3744,3.3726,3.3745,3.3738,3.3719,3.3696,3.373,3.3742,3.3746,3.3681,3.368,3.3679,3.3679,0,0,3.3923,3.3892,3.3894,3.3887,3.3863,3.386,3.3861,3.3849,3.3848,3.3833,3.3835,3.3824,3.3808,3.3798,3.3779,3.3784,3.3815,3.3765,3.3764,3.3777,3.3837,3.3852,3.3858,3.3801,3.3802,3.3802,3.3839,0,3.3954,3.3954,3.3931,3.3938,3.3936,3.3907,3.3908,3.3894,3.3879,3.3875,3.3858,3.3852,3.3829,3.3824,3.3828,3.381,3.3826,3.3807,3.3803,3.3803,3.3811,3.3864,3.3879,3.3915,3.3843,3.3844,3.3845,0,3.3988,3.3979,3.3987,3.3967,3.3965,3.3966,3.3955,3.3951,3.3936,3.3925,3.3916,3.3895,3.3896,3.3873,3.3875,3.3863,3.386,3.3851,3.3852,3.3851,3.3827,3.3867,3.3925,3.3932,3.3851,3.385,3.385,0,3.4032,3.4021,3.4025,3.4019,3.3994,3.3997,3.3987,3.3971,3.3966,3.3957,3.3954,3.3944,3.3939,3.3932,3.391,3.3895,3.3916,3.389,3.3908,3.3908,3.3914,3.3914,3.3975,3.3909,3.3909,3.3909,3.3909,0,3.4069,3.4075,3.4044,3.4047,3.4054,3.4028,3.4036,3.4023,3.401,3.401,3.3983,3.3984,3.3953,3.3951,3.3934,3.394,3.3937,3.3929,3.3924,3.3932,3.3934,3.3931,3.3928,3.391,3.391,3.391,3.3909,0,3.4118,3.4098,3.4101,3.4079,3.4073,3.408,3.4061,3.4063,3.4048,3.4049,3.4047,3.4023,3.4019,3.3996,3.3986,3.3975,3.3988,3.3977,3.3994,3.3991,3.4011,3.401,3.4073,3.4081,3.4009,3.4009,3.401,0,3.4144,3.4149,3.4129,3.4128,3.4119,3.4117,3.4114,3.4089,3.4086,3.4072,3.4076,3.4071,3.4065,3.4061,3.4042,3.4036,3.4026,3.4049,3.4025,3.4034,3.403,3.4031,3.4032,3.4055,3.4055,3.4056,3.4057,0,3.4193,3.4184,3.418,3.4173,3.417,3.4163,3.4155,3.4156,3.4128,3.4127,3.4124,3.412,3.4112,3.4108,3.4099,3.4089,3.4069,3.4065,3.4069,3.4078,3.4088,3.4085,3.401,3.4063,3.4063,3.4062,3.4062,3.4062,3.4233,3.4237,3.4225,3.4222,3.4214,3.4207,3.421,3.4195,3.4193,3.4185,3.4171,3.4171,3.4158,3.4144,3.4136,3.4136,3.4125,3.413,3.4131,3.4134,3.4139,3.4087,3.4134,3.4134,3.4134,3.4134,3.4134,0,3.4283,3.4274,3.4272,3.4263,3.4261,3.4244,3.4235,3.4235,3.4235,3.4226,3.4222,3.422,3.4217,3.4199,3.4194,3.4198,3.4189,3.4198,3.4198,3.4197,3.4149,3.4147,3.4205,3.4205,3.4205,3.4205,3.4205,3.4205,3.4308,3.4316,3.4305,3.4309,3.43,3.4301,3.4298,3.4293,3.4285,3.4285,3.4283,3.4272,3.426,3.4254,3.4251,3.4246,3.4247,3.4259,3.4251,3.4207,3.42,3.4193,3.4191,3.4259,3.4259,3.43,3.43,3.43]}]]